User: anonymous   Login
Location: Seattle
(47.6064°N, 122.3308°W)
Time: 10:16:32
(UTC-08:00)
Language:

Courier 1B Rocket - Orbit

View from above orbital plane
View from above orbital plane
View from above satellite
View from above satellite

Ground track
Ground track

The orbit data is extracted from the following two-line orbital elements,

1 00059U 60013B   20338.58189465  .00000102  00000-0  14337-4 0  9991
2 00059  28.2503  69.4242 0189195 265.7588  92.1316 13.52980602969492
Epoch (UTC): 03 December 2020 13:57:55
Eccentricity: 0.0189195
inclination: 28.2503°
perigee height: 920 km
apogee height: 1202 km
right ascension of ascending node: 69.4242°
argument of perigee: 265.7588°
revolutions per day: 13.52980602
mean anomaly at epoch: 92.1316°
orbit number at epoch: 96949

The dashed part of the orbit path shows where the satellite is in the earth's shadow,  

DLR